Content
SEND FEEDBACK

Daily
Averages
Monthly
Summary
United Kingdom

LONDON, ENGLAND


Home > Europe > United Kingdom > England
Elevation: 203 feet     Latitude: 51 09N     Longitude: 000 11W

WEATHER
 
SELECT A DAY
Number of Records: 292,281;   Date Range: 7/1/96 - 7/9/14
 
SHARE

PRINT THIS DATA

[ ← Previous Day ]
WEATHER ALMANAC - OCTOBER 18, 2013
[ Next Day → ]
[ °C ]   °F
Weather ElementAverageHighLow
Temperature55.6 °F62.6 °F (2:20 pm)48.2 °F (6:50 am)
Dewpoint53.1 °F57.2 °F (11:20 am)48.2 °F (6:50 am)
Humidity91.8 %100 % (12:50 am)72 % (3:50 pm)
Barometer29.94 in30.04 in (1:50 am)29.80 in (9:50 pm)
Wind Speed6.3 mph13.8 mph (3:50 pm)
Weather ElementAverage
Visibility4.5 mi
Wind DirectionE (89.6 °)

Weather ElementTotal
Precipitation---
Heating Degree Days9.6 (Base 65)
Growing Degree Days5.4 (Base 50)
Averaged from 47 records on October 18, 2013
WEATHER CONDITIONS BREAKOUT
WIND DIRECTION BREAKOUT
WEATHER BY HOUR - OCTOBER 18, 2013
[ °C ]   °F
Local TimeTemperatureDewpointHumidityBarometerVisibilityWind DirectionWind SpeedGust SpeedPrecipitationEventsConditions
12:50 AM51.8 °F51.8 °F100 %30.01 inVariable2.3 mphMostly Cloudy
1:20 AM53.6 °F53.6 °F100 %30.01 in2.8 miCalmMostly Cloudy
1:50 AM53.6 °F53.6 °F100 %30.04 in3.1 miCalmMostly Cloudy
2:20 AM53.6 °F53.6 °F100 %30.04 in3.1 miSSE (150°)3.5 mphMostly Cloudy
2:50 AM53.6 °F53.6 °F100 %30.04 in2.5 miVariable2.3 mphOvercast
3:20 AM53.6 °F53.6 °F100 %30.04 in3.1 miWest (270°)3.5 mphOvercast
3:50 AM53.6 °F53.6 °F100 %30.01 in3.1 miVariable2.3 mphOvercast
4:20 AM53.6 °F53.6 °F100 %30.01 in3.7 miCalmMostly Cloudy
4:50 AM53.6 °F53.6 °F100 %30.01 in3.7 miVariable2.3 mphOvercast
5:20 AM53.6 °F51.8 °F94 %30.01 in3.1 miCalmPartly Cloudy
5:50 AM51.8 °F50.0 °F94 %30.01 in2.5 miVariable2.3 mphFogPartly Cloudy
6:20 AM50.0 °F50.0 °F100 %30.01 in0.8 miVariable2.3 mphFogPatches of Fog
6:50 AM48.2 °F48.2 °F100 %30.01 in1.9 miEast (80°)3.5 mphFogPartly Cloudy
7:20 AM48.2 °F48.2 °F100 %30.01 in1.2 miVariable2.3 mphFogMist
7:50 AM48.2 °F48.2 °F100 %30.01 in1.1 miCalmFogPatches of Fog
8:20 AM50.0 °F50.0 °F100 %30.01 in1.2 miEast (80°)3.5 mphFogMostly Cloudy
8:50 AM51.8 °F51.8 °F100 %30.01 in0.9 miENE (60°)3.5 mphFogMostly Cloudy
9:20 AM51.8 °F51.8 °F100 %30.01 in1.4 miENE (70°)4.6 mphMostly Cloudy
9:50 AM51.8 °F51.8 °F100 %30.01 in1.4 miENE (70°)5.8 mphMostly Cloudy
10:20 AM53.6 °F53.6 °F100 %30.01 in3.1 miENE (70°)4.6 mphMostly Cloudy
10:50 AM55.4 °F55.4 °F100 %30.01 in3.7 miENE (60°)6.9 mphMostly Cloudy
11:20 AM57.2 °F57.2 °F100 %29.98 in5.0 miESE (120°)6.9 mphMostly Cloudy
11:50 AM59.0 °F55.4 °F88 %29.98 in5.6 miSE (140°)6.9 mphMostly Cloudy
12:20 PM60.8 °F57.2 °F88 %29.98 in6.2 miSE (130°)6.9 mphMostly Cloudy
12:50 PM60.8 °F57.2 °F88 %29.95 in6.2 miSE (130°)9.2 mphScattered Clouds
1:20 PM60.8 °F55.4 °F82 %29.95 in6.2 miSE (130°)10.4 mphMostly Cloudy
1:50 PM60.8 °F55.4 °F82 %29.95 in6.2 miESE (120°)9.2 mphScattered Clouds
2:20 PM62.6 °F55.4 °F77 %29.92 in6.2 miSE (130°)8.1 mphScattered Clouds
2:50 PM60.8 °F55.4 °F82 %29.92 in6.2 miESE (120°)8.1 mphScattered Clouds
3:20 PM62.6 °F55.4 °F77 %29.92 in6.2 miSE (130°)10.4 mphScattered Clouds
3:50 PM62.6 °F53.6 °F72 %29.92 in6.2 miESE (120°)13.8 mphScattered Clouds
4:20 PM60.8 °F53.6 °F77 %29.92 in6.2 miSE (130°)6.9 mphPartly Cloudy
4:50 PM59.0 °F53.6 °F82 %29.89 in6.2 miSE (130°)9.2 mphScattered Clouds
5:20 PM59.0 °F53.6 °F82 %29.89 in6.2 miESE (120°)9.2 mphScattered Clouds
5:50 PM57.2 °F53.6 °F88 %29.89 in6.2 miESE (120°)9.2 mphScattered Clouds
6:20 PM57.2 °F53.6 °F88 %29.86 in6.2 miESE (120°)10.4 mphMostly Cloudy
6:50 PM57.2 °F53.6 °F88 %29.86 in6.2 miESE (120°)9.2 mphMostly Cloudy
7:20 PM57.2 °F53.6 °F88 %29.86 in6.2 miSE (130°)11.5 mphMostly Cloudy
7:50 PM55.4 °F53.6 °F94 %29.83 in6.2 miESE (120°)9.2 mphMostly Cloudy
8:20 PM55.4 °F51.8 °F88 %29.83 in6.2 miESE (120°)10.4 mphMostly Cloudy
8:50 PM55.4 °F51.8 °F88 %29.83 in6.2 miSE (130°)10.4 mphMostly Cloudy
9:20 PM55.4 °F51.8 °F88 %29.83 in6.2 miESE (120°)11.5 mphMostly Cloudy
9:50 PM57.2 °F51.8 °F82 %29.80 in6.2 miESE (120°)11.5 mphMostly Cloudy
10:20 PM55.4 °F51.8 °F88 %29.80 in6.2 miSE (130°)9.2 mphMostly Cloudy
10:50 PM55.4 °F51.8 °F88 %29.80 in6.2 miSE (130°)10.4 mphMostly Cloudy
11:20 PM55.4 °F51.8 °F88 %29.80 in6.2 miSSE (150°)8.1 mphMostly Cloudy
11:50 PM55.4 °F53.6 °F94 %29.80 in6.2 miSE (140°)5.8 mphRainLight Rain
Hourly data recorded from EGKK, located miles away from London, England







STORIES FROM OUR PARTNERS